When you browse on this site, cookies collect data to enhance your experience and personalize the content and advertising you see.
Visit our Privacy Policy to learn more. By continuing to use the site, you agree to this use of cookies and data.
  • In Hungary
  • List of Countries
  • For 7 days
  • Water Temperature
  • Satellite Maps
  • Weather Map
  • News
  • Weather Widgets
  • user-avatar
    Login

    Hourly Weather Devonport

    Today, 19 February, Tuesday

    Time Temperature Precipitation Wind Pressure Humidity
    00:00 +10°C° 0 mm 5 mps 751 mmHg 71%
    01:00 +10°C° 0 mm 5 mps 751 mmHg 71%
    02:00 +10°C° 0 mm 5 mps 751 mmHg 72%
    03:00 +9°C° 0 mm 5 mps 751 mmHg 73%
    04:00 +10°C° 0 mm 4 mps 751 mmHg 74%
    05:00 +10°C° 0 mm 5 mps 751 mmHg 72%
    06:00 +10°C° 0 mm 5 mps 752 mmHg 69%
    07:00 +12°C° 0 mm 5 mps 752 mmHg 67%
    08:00 +13°C° 0 mm 5 mps 752 mmHg 60%
    09:00 +15°C° 0 mm 5 mps 753 mmHg 54%
    10:00 +17°C° 0 mm 5 mps 752 mmHg 46%
    11:00 +19°C° 0 mm 5 mps 752 mmHg 45%
    12:00 +19°C° 0 mm 5 mps 753 mmHg 43%
    13:00 +20°C° 0 mm 5 mps 753 mmHg 41%
    14:00 +20°C° 0 mm 5 mps 753 mmHg 41%
    15:00 +20°C° 0 mm 5 mps 753 mmHg 42%
    16:00 +20°C° 0 mm 5 mps 753 mmHg 41%
    17:00 +19°C° 0 mm 5 mps 753 mmHg 46%
    18:00 +17°C° 0 mm 5 mps 754 mmHg 51%
    19:00 +15°C° 0 mm 5 mps 754 mmHg 56%
    20:00 +14°C° 0 mm 5 mps 754 mmHg 61%
    21:00 +13°C° 0 mm 5 mps 754 mmHg 67%
    22:00 +11°C° 0 mm 4 mps 754 mmHg 72%
    23:00 +11°C° 0 mm 4 mps 755 mmHg 74%

    Tomorrow, 20 February, Wednesday

    Time Temperature Precipitation Wind Pressure Humidity
    00:00 +11°C° 0 mm 4 mps 755 mmHg 77%
    01:00 +10°C° 0 mm 4 mps 755 mmHg 79%
    02:00 +10°C° 0 mm 4 mps 754 mmHg 79%
    03:00 +10°C° 0 mm 4 mps 754 mmHg 80%
    04:00 +11°C° 0 mm 4 mps 754 mmHg 81%
    05:00 +12°C° 0 mm 4 mps 754 mmHg 79%
    06:00 +12°C° 0 mm 4 mps 754 mmHg 77%
    07:00 +13°C° 0 mm 4 mps 754 mmHg 76%
    08:00 +14°C° 0 mm 5 mps 754 mmHg 74%
    09:00 +15°C° 0 mm 5 mps 754 mmHg 72%
    10:00 +16°C° 0 mm 5 mps 754 mmHg 71%
    11:00 +17°C° 0 mm 5 mps 754 mmHg 64%
    12:00 +19°C° 0 mm 5 mps 754 mmHg 58%
    13:00 +20°C° 0 mm 6 mps 754 mmHg 51%
    14:00 +20°C° 0 mm 6 mps 754 mmHg 51%
    15:00 +20°C° 0 mm 6 mps 754 mmHg 51%
    16:00 +19°C° 0 mm 6 mps 754 mmHg 51%
    17:00 +17°C° 0 mm 5 mps 754 mmHg 54%
    18:00 +15°C° 0 mm 5 mps 755 mmHg 57%
    19:00 +14°C° 0 mm 4 mps 755 mmHg 60%
    20:00 +13°C° 0 mm 4 mps 756 mmHg 64%
    21:00 +12°C° 0 mm 4 mps 756 mmHg 68%
    22:00 +11°C° 0 mm 4 mps 757 mmHg 72%
    23:00 +11°C° 0 mm 4 mps 757 mmHg 74%

    Day after tomorrow, 21 February, Thursday

    Time Temperature Precipitation Wind Pressure Humidity
    00:00 +10°C° 0 mm 4 mps 757 mmHg 75%
    01:00 +10°C° 0 mm 4 mps 757 mmHg 77%
    02:00 +10°C° 0 mm 4 mps 757 mmHg 77%
    03:00 +10°C° 0 mm 4 mps 757 mmHg 78%
    04:00 +10°C° 0 mm 4 mps 758 mmHg 78%
    05:00 +10°C° 0 mm 4 mps 758 mmHg 75%
    06:00 +11°C° 0 mm 4 mps 759 mmHg 72%
    07:00 +11°C° 0 mm 3 mps 759 mmHg 69%
    08:00 +13°C° 0 mm 3 mps 759 mmHg 62%
    09:00 +16°C° 0 mm 3 mps 760 mmHg 55%
    10:00 +18°C° 0 mm 3 mps 760 mmHg 48%
    11:00 +18°C° 0 mm 4 mps 760 mmHg 48%
    12:00 +19°C° 0 mm 4 mps 760 mmHg 47%
    13:00 +19°C° 0 mm 4 mps 760 mmHg 47%
    14:00 +20°C° 0 mm 4 mps 760 mmHg 46%
    15:00 +20°C° 0 mm 4 mps 760 mmHg 46%
    16:00 +20°C° 0 mm 5 mps 760 mmHg 46%
    17:00 +19°C° 0 mm 4 mps 760 mmHg 51%
    18:00 +18°C° 0 mm 4 mps 761 mmHg 56%
    19:00 +15°C° 0 mm 4 mps 761 mmHg 61%
    20:00 +14°C° 0 mm 3 mps 761 mmHg 68%
    21:00 +13°C° 0 mm 3 mps 762 mmHg 74%
    22:00 +11°C° 0 mm 3 mps 762 mmHg 80%
    23:00 +11°C° 0 mm 3 mps 762 mmHg 82%

    22 February, Friday

    Time Temperature Precipitation Wind Pressure Humidity
    00:00 +10°C° 0 mm 3 mps 762 mmHg 85%
    01:00 +10°C° 0 mm 3 mps 762 mmHg 87%
    02:00 +10°C° 0 mm 2 mps 763 mmHg 86%
    03:00 +10°C° 0 mm 2 mps 763 mmHg 86%
    04:00 +10°C° 0 mm 2 mps 763 mmHg 86%
    05:00 +10°C° 0 mm 2 mps 763 mmHg 82%
    06:00 +12°C° 0 mm 2 mps 763 mmHg 78%
    07:00 +12°C° 0 mm 1 mps 764 mmHg 74%
    08:00 +15°C° 0 mm 1 mps 764 mmHg 63%
    09:00 +19°C° 0 mm 1 mps 764 mmHg 53%
    10:00 +22°C° 0 mm 1 mps 764 mmHg 43%
    11:00 +23°C° 0 mm 2 mps 764 mmHg 42%
    12:00 +24°C° 0 mm 2 mps 764 mmHg 41%
    13:00 +25°C° 0 mm 3 mps 764 mmHg 40%
    14:00 +25°C° 0 mm 3 mps 763 mmHg 40%
    15:00 +25°C° 0 mm 3 mps 763 mmHg 41%
    16:00 +26°C° 0 mm 3 mps 763 mmHg 41%
    17:00 +24°C° 0 mm 3 mps 763 mmHg 46%
    18:00 +21°C° 0 mm 3 mps 764 mmHg 52%
    19:00 +20°C° 0 mm 3 mps 764 mmHg 58%
    20:00 +18°C° 0 mm 3 mps 764 mmHg 62%
    21:00 +17°C° 0 mm 3 mps 765 mmHg 65%
    22:00 +16°C° 0 mm 3 mps 765 mmHg 69%
    23:00 +16°C° 0 mm 3 mps 765 mmHg 71%

    23 February, Saturday

    Time Temperature Precipitation Wind Pressure Humidity
    00:00 +14°C° 0 mm 3 mps 765 mmHg 72%
    01:00 +13°C° 0 mm 3 mps 765 mmHg 73%
    02:00 +13°C° 0 mm 3 mps 765 mmHg 75%
    03:00 +13°C° 0 mm 2 mps 765 mmHg 77%
    04:00 +13°C° 0 mm 2 mps 765 mmHg 78%
    05:00 +13°C° 0 mm 2 mps 765 mmHg 76%
    06:00 +13°C° 0 mm 2 mps 766 mmHg 73%
    07:00 +14°C° 0 mm 2 mps 766 mmHg 70%
    08:00 +17°C° 0 mm 2 mps 766 mmHg 60%
    09:00 +21°C° 0 mm 1 mps 767 mmHg 50%
    10:00 +24°C° 0 mm 1 mps 767 mmHg 40%
    11:00 +24°C° 0 mm 2 mps 767 mmHg 40%
    12:00 +25°C° 0 mm 3 mps 767 mmHg 40%
    13:00 +25°C° 0 mm 4 mps 766 mmHg 40%
    14:00 +23°C° 0 mm 4 mps 766 mmHg 45%
    15:00 +23°C° 0 mm 4 mps 766 mmHg 50%
    16:00 +22°C° 0 mm 4 mps 766 mmHg 55%
    17:00 +20°C° 0 mm 3 mps 767 mmHg 64%
    18:00 +18°C° 0 mm 3 mps 767 mmHg 74%
    19:00 +17°C° 0 mm 3 mps 767 mmHg 83%
    20:00 +16°C° 0 mm 2 mps 768 mmHg 87%
    21:00 +15°C° 0 mm 2 mps 769 mmHg 91%
    22:00 +14°C° 0 mm 2 mps 769 mmHg 95%
    23:00 +14°C° 0 mm 2 mps 769 mmHg 93%

    24 February, Sunday

    Time Temperature Precipitation Wind Pressure Humidity
    00:00 +15°C° 0 mm 2 mps 769 mmHg 91%
    01:00 +15°C° 0 mm 1 mps 769 mmHg 90%
    02:00 +15°C° 0 mm 1 mps 769 mmHg 90%
    03:00 +15°C° 0 mm 1 mps 769 mmHg 91%
    04:00 +14°C° 0 mm 1 mps 768 mmHg 92%
    05:00 +14°C° 0 mm 1 mps 769 mmHg 91%
    06:00 +14°C° 0 mm 1 mps 769 mmHg 91%
    07:00 +14°C° 0 mm 1 mps 769 mmHg 90%
    08:00 +16°C° 0 mm 2 mps 769 mmHg 80%
    09:00 +18°C° 0 mm 2 mps 769 mmHg 70%
    10:00 +19°C° 0 mm 2 mps 769 mmHg 60%
    11:00 +20°C° 0 mm 3 mps 769 mmHg 57%
    12:00 +21°C° 0 mm 3 mps 768 mmHg 53%
    13:00 +22°C° 0 mm 3 mps 768 mmHg 50%
    14:00 +22°C° 0 mm 3 mps 768 mmHg 50%
    15:00 +22°C° 0 mm 3 mps 767 mmHg 50%
    16:00 +21°C° 0 mm 3 mps 767 mmHg 50%
    17:00 +20°C° 0 mm 3 mps 767 mmHg 57%
    18:00 +18°C° 0 mm 2 mps 767 mmHg 65%
    19:00 +16°C° 0 mm 2 mps 767 mmHg 73%
    20:00 +16°C° 0 mm 2 mps 767 mmHg 77%
    21:00 +15°C° 0 mm 2 mps 768 mmHg 81%
    22:00 +14°C° 0 mm 2 mps 768 mmHg 86%
    23:00 +14°C° 0 mm 2 mps 767 mmHg 86%
    Show more